Location: Unspecified
(0.0000°N, 0.0000°E)
Time: 01:00:16
(UTC+01:00)

Resurs 01 Rocket - Visible Passes

Search period start: 25 February 2017 00:00
Search period end: 07 March 2017 00:00
Orbit: 634 x 645 km, 98.2° (Epoch: 23 February)

Date Brightness Start Highest point End Pass type
(mag) Time Alt. Az. Time Alt. Az. Time Alt. Az.
25 Feb 2.6 20:05:29 10° SE 20:09:08 25° ENE 20:12:45 10° NNE visible
25 Feb 4.6 21:43:07 10° SW 21:45:20 14° WSW 21:47:31 10° WNW visible
26 Feb 1.6 20:28:06 10° SSE 20:32:25 54° ENE 20:36:42 10° N visible
27 Feb 1.8 20:51:18 10° S 20:55:42 69° WSW 21:00:04 10° NNW visible
28 Feb 3.5 19:41:49 10° E 19:42:47 11° ENE 19:43:44 10° ENE visible
28 Feb 3.3 21:15:04 10° SSW 21:18:59 31° WSW 21:22:53 10° NW visible
01 Mar 2.7 20:02:35 10° SE 20:06:03 23° ENE 20:09:30 10° NNE visible
01 Mar 4.4 21:39:41 10° SW 21:42:16 15° WSW 21:44:49 10° WNW visible
02 Mar 1.7 20:25:05 10° SSE 20:29:21 48° ENE 20:33:34 10° N visible
03 Mar 1.6 20:48:13 10° S 20:52:38 78° WSW 20:57:01 10° NNW visible
04 Mar 3.1 21:11:53 10° SSW 21:15:55 35° WSW 21:19:55 10° NW visible
05 Mar 2.8 19:59:44 10° SE 20:02:59 20° ENE 20:06:13 10° NNE visible
05 Mar 4.3 21:36:20 10° SW 21:39:11 17° WSW 21:42:01 10° WNW visible
06 Mar 1.9 20:22:05 10° SSE 20:26:16 42° ENE 20:30:25 10° N visible
